Home > Weather > Korbach > Past weeks

Flag for Germany Weather for the Past 2 Weeks in Korbach, Hesse, Germany

Now
46 °F

Light rain. Partly cloudy.


Feels Like: 39 °F
Forecast: 33 / 37 °F
Wind: 20 mph from South

Location: Fritzlar Airport

Current Time: Feb 9, 2016 at 7:57:47 PM

Latest Report: Feb 9, 2016 at 7:20 PM


Visibility: N/A

Pressure: 28.94 "Hg

Humidity: 82%

Dew point: 41 °F

Location of KorbachLocation

Historic Weather in Korbach — Graph

°F

Korbach Temperature Yesterday

Maximum temperature yesterday: 46 °F (at 10:20 AM)
Minimum temperature yesterday: 43 °F (at 12:20 AM)
Average temperature yesterday: 44 °F

High & Low Weather Summary for the Past Weeks

 TemperatureHumidityPressure
High54 °F (Feb 1, 10:20 AM)100% (Jan 25, 8:20 PM)30.33 "Hg (Jan 25, 8:20 PM)
Low30 °F (Jan 28, 11:20 PM)50% (Jan 28, 2:20 PM)28.88 "Hg (Feb 9, 6:20 PM)
Average44 °F81%29.95 "Hg
* Reported Jan 25 6:20 PM — Feb 9 6:20 PM, Korbach, Weather by CustomWeather, © 2016

Note: Actual official high and low records may vary slightly from our data, if they occured in-between our weather recording intervals... More about our weather records

Advertising

Korbach Weather History for the Previous 24 Hours

 ConditionsComfort  
Time TempWeatherWind HumidityBarometerVisibility
6:20 PM
Tue, Feb 9
46 °FLight rain. Passing clouds.23 mph82%28.88 "HgN/A
5:20 PM46 °FLight rain. Mostly cloudy.23 mph87%28.97 "Hg5 mi
5:00 PM46 °FRain. Fog.17 mph87%28.97 "Hg3 mi
4:20 PM48 °FLight rain. Broken clouds.21 mph82%28.97 "HgN/A
3:20 PM45 °FRain. Mostly cloudy.8 mph87%29.03 "Hg4 mi
2:20 PM41 °FRain. Fog.8 mph93%29.12 "Hg3 mi
1:20 PM41 °FRain. Fog.17 mph87%29.21 "Hg3 mi
12:20 PM45 °FRain. Mostly cloudy.13 mph81%29.30 "Hg4 mi
11:20 AM45 °FOvercast.12 mph76%29.33 "HgN/A
10:20 AM43 °FPartly sunny.16 mph76%29.42 "HgN/A
9:20 AM43 °FBroken clouds.9 mph76%29.45 "HgN/A
8:20 AM43 °FPartly sunny.14 mph76%29.45 "HgN/A
7:20 AM43 °FPartly cloudy.17 mph76%29.47 "HgN/A
6:20 AM43 °FPassing clouds.17 mph71%29.50 "HgN/A
5:20 AM43 °FPassing clouds.16 mph71%29.50 "HgN/A
4:20 AM45 °FPartly cloudy.16 mph66%29.50 "HgN/A
3:20 AM45 °FPassing clouds.20 mph66%29.47 "HgN/A
2:20 AM45 °FPartly cloudy.21 mph61%29.47 "HgN/A
1:20 AM45 °FPassing clouds.22 mph66%29.47 "HgN/A
12:20 AM45 °FLight rain. Passing clouds.20 mph66%29.47 "HgN/A
11:20 PM
Mon, Feb 8
43 °FLight rain. Partly cloudy.18 mph76%29.45 "HgN/A
10:20 PM45 °FLight rain. Passing clouds.21 mph66%29.42 "HgN/A
9:20 PM43 °FPartly cloudy.21 mph71%29.42 "HgN/A
8:20 PM43 °FLight rain. Passing clouds.21 mph76%29.42 "HgN/A
7:20 PM45 °FPassing clouds.16 mph71%29.39 "HgN/A
Weather by CustomWeather, © 2016

See weather overviewHow to use our weather pages